This demonstration page uses our WeatherBlox Daily Observations layout. Learn more.

Left ArrowRight Arrow

39.95238, -75.16362

Hourly Observations for January 8, 2022

Temp ( °F °C ) Dew Point ( °F °C ) Humidity (%) Winds ( mph kmh ) Pressure ( in mb ) Visibility ( mi km ) Precip ( " mm )
12:54 am 00:54 Clear 24 -4.4 8 -13.3 50 50 W 13 20 30.34 1027 10 16 0.00 0.00
1:54 am 01:54 Clear 22 -5.6 8 -13.3 55 55 W 12 19 30.38 1029 10 16 0.00 0.00
2:54 am 02:54 Clear 24 -4.4 8 -13.3 50 50 W 10 17 30.41 1030 10 16 0.00 0.00
3:54 am 03:54 Clear 22 -5.6 8 -13.3 55 55 W 8 13 30.44 1031 10 16 0.00 0.00
4:54 am 04:54 Clear 21 -6.1 8 -13.3 57 57 W 12 19 30.48 1032 10 16 0.00 0.00
5:54 am 05:54 Clear 21 -6.1 8 -13.3 57 57 W 12 19 30.50 1033 10 16 0.00 0.00
6:54 am 06:54 Mostly Clear 23 -5 9 -12.8 55 55 W 9 15 30.54 1034 10 16 0.00 0.00
7:54 am 07:54 Mostly Sunny 22 -5.6 9 -12.8 57 57 N 3 6 30.57 1035 10 16 0.00 0.00
8:54 am 08:54 Mostly Sunny 25 -3.9 10 -12.2 53 53 NNW 12 19 30.63 1037 10 16 0.00 0.00
9:54 am 09:54 Mostly Sunny 26 -3.3 8 -13.3 46 46 NNW 14 22 30.64 1038 10 16 0.00 0.00
10:54 am 10:54 Mostly Sunny 27 -2.8 8 -13.3 45 45 N 9 15 30.64 1038 10 16 0.00 0.00
11:54 am 11:54 Mostly Sunny 30 -1.1 7 -13.9 38 38 NNW 5 7 30.63 1037 10 16 0.00 0.00
12:54 pm 12:54 Mostly Sunny 32 0 7 -13.9 35 35 Calm 30.62 1037 10 16 0.00 0.00
1:54 pm 13:54 Mostly Sunny 32 0 8 -13.3 36 36 SSW 5 7 30.60 1036 10 16 0.00 0.00
2:54 pm 14:54 Sunny 33 0.6 7 -13.9 33 33 Calm 30.60 1036 10 16 0.00 0.00
3:54 pm 15:54 Sunny 34 1.1 7 -13.9 32 32 Calm 30.60 1036 10 16 0.00 0.00
4:54 pm 16:54 Clear 33 0.6 6 -14.4 32 32 Calm 30.60 1036 10 16 0.00 0.00
5:54 pm 17:54 Clear 31 -0.6 10 -12.2 42 42 S 6 9 30.61 1037 10 16 0.00 0.00
6:54 pm 18:54 Clear 31 -0.6 11 -11.7 43 43 S 8 13 30.62 1037 10 16 0.00 0.00
7:54 pm 19:54 Clear 30 -1.1 11 -11.7 45 45 SSW 8 13 30.63 1037 10 16 0.00 0.00
8:54 pm 20:54 Clear 28 -2.2 13 -10.6 53 53 SSE 7 11 30.59 1036 10 16 0.00 0.00
9:54 pm 21:54 Clear 29 -1.7 13 -10.6 51 51 S 9 15 30.56 1035 10 16 0.00 0.00
10:54 pm 22:54 Clear 29 -1.7 14 -10 54 54 S 9 15 30.56 1035 10 16 0.00 0.00
11:54 pm 23:54 Clear 28 -2.2 15 -9.4 58 58 S 6 9 30.55 1035 10 16 0.00 0.00

Powered by AerisWeather